Regional Weather Roundup
Issued by NWS

Home | Current Version | Previous Version | Graphics & Text | Print | Product List | Glossary On
Versions: 1 2 3 4 5 6 7 8 9 10 11 12 13 14 15 16 17 18 19 20 21 22 23 24 25 26 27 28 29 30 31 32 33 34 35 36 37 38 39 40 41 42 43 44 45 46 47 48 49 50
000
ASUS43 KOAX 190502
RWRNE

WEATHER ROUNDUP FOR NEBRASKA
NATIONAL WEATHER SERVICE OMAHA NE
1200 AM CDT SAT APR 19 2014

NOTES: SATELLITE DATA IS BEING USED TO AUGMENT CLOUD COVER ABOVE
       12000 FEET.
       "FAIR" INDICATES FEW OR NO CLOUDS BELOW 12,000 FEET WITH NO
       SIGNIFICANT WEATHER AND/OR OBSTRUCTIONS TO VISIBILITY.

  * THESE STATIONS DO NOT REPORT WEATHER SUCH AS RAIN...SNOW OR FOG.

NEZ001>004-019>022-054>056-190600-
NEBRASKA PANHANDLE

CITY           SKY/WX    TMP DP  RH WIND       PRES   REMARKS
SCOTTSBLUFF    CLOUDY    66  32  28 W9        29.82R
ALLIANCE       CLOUDY    60  35  39 W9        29.84R
CHADRON        CLOUDY    62  38  40 SW8       29.78R
KIMBALL        CLOUDY    61  29  30 S14       29.85R
SIDNEY         CLOUDY    66  36  32 S30G39    29.83F
$$

NEZ057>060-069>072-079>082-190600-
SOUTHWEST NEBRASKA

CITY           SKY/WX    TMP DP  RH WIND       PRES   REMARKS
NORTH PLATTE   PTCLDY    60  41  49 S22G32    29.87F
IMPERIAL       CLOUDY    59  42  53 S22       29.89F
LEXINGTON      CLEAR     57  44  60 S18G25    29.95S
MCCOOK         MOCLDY    60  41  49 S21G30    29.93F
OGALLALA       MOCLDY    58  42  54 S22G31    29.84F
$$

NEZ005>010-023>029-035>040-094-190600-
NORTH CENTRAL NEBRASKA

CITY           SKY/WX    TMP DP  RH WIND       PRES   REMARKS
VALENTINE      CLOUDY    63  43  48 S25G37    29.77R
AINSWORTH      CLOUDY    62  43  51 S28G35    29.80S
BROKEN BOW     PTCLDY    57  43  59 S21G28    29.92F
O`NEILL        MOCLDY    62  40  44 S26G33    29.87R
ORD            PTCLDY    59  42  53 S21G31    29.92F
THEDFORD       MOCLDY    63  42  46 S29G37    29.85S
$$

NEZ041-046>049-061>064-073>077-083>087-190600-
SOUTH CENTRAL NEBRASKA

CITY           SKY/WX    TMP DP  RH WIND       PRES   REMARKS
GRAND ISLAND   CLEAR     57  42  57 S17       29.99F
AURORA         CLEAR     56  42  59 S14       30.01F
HASTINGS       CLEAR     58  41  53 S15       30.00F
HEBRON         CLEAR     54  41  60 SE12      30.06F
HOLDREGE       CLEAR     57  42  57 S17       29.98S
KEARNEY *      CLEAR     55  41  58 S15G21    29.98F
YORK           CLEAR     55  41  58 S16       30.04S
$$

NEZ011>018-030>034-042>045-190600-
NORTHEAST NEBRASKA

CITY           SKY/WX    TMP DP  RH WIND       PRES   REMARKS
NORFOLK        PTCLDY    57  39  51 S21G29    29.97F
ALBION         CLEAR     57  41  53 S15       29.97F
BLAIR          PTCLDY    59  39  48 S22G29    30.07S
FREMONT        CLEAR     58  39  50 SE16      30.06S
TEKAMAH        PTCLDY    56  39  53 S16       30.05S
$$

NEZ050>053-065>068-078-088>093-190600-
SOUTHEAST NEBRASKA

CITY           SKY/WX    TMP DP  RH WIND       PRES   REMARKS
LINCOLN        CLEAR     57  40  52 S17       30.08S
OMAHA EPPLEY   PTCLDY    56  40  55 S10       30.09S
BEATRICE       CLEAR     56  40  54 S10       30.10S
FALLS CITY     CLOUDY    52  41  66 SE10      30.14R
NEBRASKA CITY  MOCLDY    56  40  54 S14       30.12S
PLATTSMOUTH    PTCLDY    57  38  48 SE10G17   30.10F
$$

NEZ044-045-051>053-067-190600-
OMAHA AREA

CITY           SKY/WX    TMP DP  RH WIND       PRES   REMARKS
OMAHA EPPLEY   PTCLDY    56  40  55 S10       30.09S
BLAIR          PTCLDY    59  39  48 S22G29    30.07S
FREMONT        CLEAR     58  39  50 SE16      30.06S
MILLARD        PTCLDY    58  40  51 S10       30.09S
OFFUTT AFB     PTCLDY    54  41  62 SE10      30.10S
PLATTSMOUTH    PTCLDY    57  38  48 SE10G17   30.10F
WAHOO          FAIR      55  39  54 S16       30.07S
$$



USA.gov is the U.S. government's official web portal to all federal, state and local government web resources and services.